Location: Dampvalley
(47.9094°N, 6.1967°E)
Time: 06:02:46
(UTC+00:00)

Envisat - Pass Details

Date: 10 December 2022
Orbit: 763 x 765 km, 98.2° (Epoch: 27 January)

Event Time Altitude Azimuth Distance (km) Brightness Sun altitude
Rises 04:57:11 0° 5° (N) 3,245 6.2 -21.8°
Reaches altitude 10° 04:59:43 10° 355° (N) 2,314 5.3 -21.4°
Enters shadow 05:00:58 16° 346° (NNW) 1,908 4.8 -21.2°
